Cloverdale, Indiana, United States (46120)
Lat: 39.51N, Lon: 86.79W
Wx Zone: INZ045
Local Info
Past Weather Observations for Tuesday, January 27, 2015

NOTE: This archive is for the closest National Weather Service station to Cloverdale. Information may differ from the station used for current weather conditions.

Click here for Long-term Archive

Time Weather Temperature Dewpoint Humidity Pressure Winds Precip Visibility
23:53
Clear
19°F / -7°C 16°F / -9°C 86% 30.24 in
(1024 mb)
Calm - 9SM
22:53
Clear
19°F / -7°C 16°F / -9°C 86% 30.24 in
(1024 mb)
Calm - 10SM
21:53
Clear
21°F / -6°C 18°F / -8°C 86% 30.24 in
(1024 mb)
NNE 3.5 mph
(NNE 6 kph)
- 10SM
20:53
Clear
21°F / -6°C 18°F / -8°C 86% 30.24 in
(1024 mb)
Calm - 10SM
19:53
Clear
25°F / -4°C 19°F / -7°C 80% 30.21 in
(1023 mb)
Calm - 10SM
18:53
Clear
28°F / -2°C 21°F / -6°C 74% 30.18 in
(1022 mb)
Calm - 10SM
18:30
Partly Cloudy
28°F / -2°C 21°F / -6°C 74% 30.18 in
(1022 mb)
Calm - 10SM
17:53
Overcast
30°F / -1°C 25°F / -4°C 80% 30.18 in
(1022 mb)
N 8.1 mph
(N 13 kph)
- 8SM
16:53
Overcast
30°F / -1°C 25°F / -4°C 80% 30.15 in
(1021 mb)
N 5.8 mph
(N 9 kph)
- 7SM
15:53
Overcast
Hazy
30°F / -1°C 25°F / -4°C 80% 30.15 in
(1021 mb)
N 6.9 mph
(N 11 kph)
- 6SM
14:53
Overcast
30°F / -1°C 25°F / -4°C 80% 30.12 in
(1020 mb)
N 4.6 mph
(N 7 kph)
- 9SM
13:53
Overcast
30°F / -1°C 25°F / -4°C 80% 30.09 in
(1019 mb)
N 5.8 mph
(N 9 kph)
- 8SM
13:16
Overcast
30°F / -1°C 25°F / -4°C 80% 30.09 in
(1019 mb)
N 3.5 mph
(N 6 kph)
- 8SM
12:53
Overcast
30°F / -1°C 25°F / -4°C 80% 30.09 in
(1019 mb)
N 3.5 mph
(N 6 kph)
- 7SM
11:53
Overcast
Hazy
30°F / -1°C 25°F / -4°C 80% 30.09 in
(1019 mb)
E 5.8 mph
(E 9 kph)
- 6SM
10:53
Overcast
Fog And Mist
30°F / -1°C 27°F / -3°C 86% 30.09 in
(1019 mb)
NE 6.9 mph
(NE 11 kph)
- 6SM
10:48
Overcast
Fog And Mist
30°F / -1°C 27°F / -3°C 86% 30.06 in
(1018 mb)
NE 4.6 mph
(NE 7 kph)
- 6SM
10:24
Overcast
Fog And Mist
28°F / -2°C 27°F / -3°C 93% 30.06 in
(1018 mb)
NE 5.8 mph
(NE 9 kph)
- 6SM
09:53
Overcast
28°F / -2°C 27°F / -3°C 93% 30.04 in
(1017 mb)
NE 6.9 mph
(NE 11 kph)
- 8SM
09:41
Overcast
28°F / -2°C 27°F / -3°C 93% 30.04 in
(1017 mb)
NE 5.8 mph
(NE 9 kph)
- 7SM
09:18
Overcast
Fog And Mist
28°F / -2°C 27°F / -3°C 93% 30.04 in
(1017 mb)
NE 4.6 mph
(NE 7 kph)
- 6SM
08:53
Overcast
28°F / -2°C 27°F / -3°C 93% 30.04 in
(1017 mb)
NE 4.6 mph
(NE 7 kph)
- 7SM
08:49
Overcast
28°F / -2°C 27°F / -3°C 93% 30.04 in
(1017 mb)
NNE 4.6 mph
(NNE 7 kph)
- 7SM
07:53
Overcast
Fog And Mist
28°F / -2°C 27°F / -3°C 93% 30.01 in
(1016 mb)
N 4.6 mph
(N 7 kph)
- 6SM
06:53
Overcast
Fog And Mist
28°F / -2°C 27°F / -3°C 93% 29.98 in
(1015 mb)
NE 5.8 mph
(NE 9 kph)
- 5SM
05:53
Overcast
Fog And Mist
28°F / -2°C 27°F / -3°C 93% 29.95 in
(1014 mb)
N 3.5 mph
(N 6 kph)
- 6SM
04:53
Overcast
27°F / -3°C 25°F / -4°C 93% 29.92 in
(1013 mb)
Calm - 7SM
04:35
Overcast
Fog And Mist
27°F / -3°C 27°F / -3°C 100% 29.92 in
(1013 mb)
Calm - 6SM
04:26
Overcast
27°F / -3°C 25°F / -4°C 93% 29.92 in
(1013 mb)
Calm - 7SM
03:53
Overcast
Fog And Mist
27°F / -3°C 27°F / -3°C 100% 29.92 in
(1013 mb)
Calm 0.00 in
(0.00 mm)
6SM
03:12
Overcast
Fog And Mist
27°F / -3°C 27°F / -3°C 100% 29.92 in
(1013 mb)
Calm 0.00 in
(0.00 mm)
3SM
02:53
Overcast
Light Snow
27°F / -3°C 27°F / -3°C 100% 29.92 in
(1013 mb)
Calm 0.00 in
(0.00 mm)
2 1/2SM
01:53
Overcast
Fog And Mist
27°F / -3°C 25°F / -4°C 93% 29.92 in
(1013 mb)
Calm 0.00 in
(0.00 mm)
3SM
01:06
Overcast
Fog And Mist
27°F / -3°C 25°F / -4°C 93% 29.92 in
(1013 mb)
Calm - 4SM
00:53
Overcast
Fog And Mist
27°F / -3°C 25°F / -4°C 93% 29.92 in
(1013 mb)
Calm - 4SM
Time Weather Temperature Dewpoint Humidity Pressure Winds Precip Visibility


Weather for websites

WeatherForYou.com, LLC is not responsible for any damages or problems caused by this service. Current weather conditions are obtained from the closest station including government and personal stations which may have varying degrees of accuracy. Weather forecasts are derived from the NOAA NDFD. Like all things, this site belongs to Jesus Christ... He just trusts me to maintain it. If you have any questions or comments email webmaster@weatherforyou.com

Copyright © 2015, WeatherForYou.com LLC. All rights reserved.